Regional Weather Roundup
Issued by NWS

Home | Current Version | Previous Version | Graphics & Text | Print | Product List | Glossary On
Versions: 1 2 3 4 5 6 7 8 9 10 11 12 13 14 15 16 17 18 19 20 21 22 23 24 25 26 27 28 29 30 31 32 33 34 35 36 37 38 39 40 41 42 43 44 45 46 47 48 49 50
000
ASUS43 KDMX 211707
RWRIA

WEATHER ROUNDUP FOR IOWA
NATIONAL WEATHER SERVICE DES MOINES IA
1200 PM CDT TUE OCT 21 2014

NOTE: "FAIR" INDICATES FEW OR NO CLOUDS BELOW 12,000 FEET WITH NO
SIGNIFICANT WEATHER AND/OR OBSTRUCTIONS TO VISIBILITY.

* - THESE STATIONS ARE NOT NWS STATIONS...THUS NOT UNDER NWS
QUALITY CONTROL.  THEY ALSO DO NOT REPORT WEATHER SUCH
AS PRECIPITATION OR FOG.

IAZ001>003-012>014-020>022-031>034-043>046-211800-
   NORTHWEST IOWA

CITY           SKY/WX    TMP DP  RH WIND       PRES   REMARKS
CARROLL *      SUNNY     64  43  45 SE9       30.13F
CHEROKEE *     SUNNY     66  43  42 S8        30.11S
DENISON *      SUNNY     68  41  37 S8        30.10S
LE MARS *      SUNNY     66  43  42 S12       30.09F
ORANGE CITY *  SUNNY     66  37  34 S10       30.08F
SHELDON *      SUNNY     66  41  39 SE15      30.08F
SIOUX CITY     SUNNY     66  42  41 SE9       30.09F
SPENCER        SUNNY     63  43  48 SE10      30.12F
STORM LAKE *   SUNNY     64  41  42 SE13      30.12F
$$

IAZ055>058-069>071-079>083-090>094-211800-
   SOUTHWEST IOWA

CITY           SKY/WX    TMP DP  RH WIND       PRES   REMARKS
ATLANTIC *     SUNNY     68  45  42 S5        30.12F
AUDUBON *      SUNNY     66  43  42 CALM      30.13F
CLARINDA *     SUNNY     68  45  42 SW5       30.14F
COUNCIL BLFS * SUNNY     66  45  45 S10       30.11F
CRESTON *      SUNNY     64  43  45 CALM      30.14F
HARLAN  *      SUNNY     66  45  45 SE7       30.15F
LAMONI         SUNNY     65  48  54 NE5       30.14F
RED OAK *      SUNNY     68  43  40 S6        30.13F
SHENANDOAH *   SUNNY     68  43  40 S5        30.13F
$$

IAZ047>049-059>061-072>074-084-211800-
   CENTRAL IOWA

CITY           SKY/WX    TMP DP  RH WIND       PRES   REMARKS
AMES           SUNNY     59  43  55 SE5       30.16S
ANKENY *       SUNNY     59  45  58 SE10      30.16S
CHARITON *     SUNNY     61  46  59 E8        30.15F
DES MOINES     SUNNY     60  46  59 E7        30.16S
GRINNELL*      SUNNY     57  41  54 E10       30.18S
KNOXVILLE *    SUNNY     59  43  55 E9        30.15F
MARSHALLTOWN   SUNNY     57  42  57 SE9       30.17S
PELLA *        SUNNY     61  45  55 SE10      30.18S
PERRY *          N/A     63  45  51 SE5       30.15F
$$

IAZ004>006-015-016-023>025-035-036-211800-
   NORTH CENTRAL IOWA

CITY           SKY/WX    TMP DP  RH WIND       PRES   REMARKS
ALGONA *       SUNNY     59  45  58 SE9       30.15F
CLARION *      SUNNY     59  43  55 SE9       30.16S
ESTHERVILLE    SUNNY     60  43  53 SE9G18    30.13F
FORT DODGE *   SUNNY     59  45  58 S7        30.16S
MASON CITY     SUNNY     56  41  57 SE10      30.19F
FOREST CITY *  SUNNY     55  45  67 SE10G17   30.17S
IOWA FALLS *     N/A     57  43  58 SE10      30.18F
$$

IAZ007>011-017>019-026>030-037>042-050>054-066-211800-
   NORTHEAST IOWA

CITY           SKY/WX    TMP DP  RH WIND       PRES   REMARKS
CEDAR RAPIDS   SUNNY     56  41  57 E9        30.19S
CHARLES CITY * SUNNY     55  41  58 SE9       30.20S
CLINTON *      SUNNY     54  37  54 NE9       30.24R
DECORAH *      SUNNY     52  39  62 SE5       30.21S
DUBUQUE        SUNNY     51  38  60 E7        30.22R
MONTICELLO *   SUNNY     55  41  58 E8        30.21S
OELWEIN *      SUNNY     55  39  54 SE9       30.21S
WATERLOO       SUNNY     55  40  56 SE8       30.19S
$$

IAZ064-065-067-068-078-211800-
   EAST CENTRAL IOWA

CITY           SKY/WX    TMP DP  RH WIND       PRES   REMARKS
DAVENPORT      SUNNY     55  39  54 NE12      30.21S
IOWA CITY      SUNNY     56  41  57 E9        30.21S
MT. PLEASANT * SUNNY     57  39  51 NE7       30.19S
MUSCATINE *    SUNNY     57  41  54 NE10      30.20F
QUAD CITIES    SUNNY     56  40  55 NE8       30.19F
$$

IAZ062-063-075>077-085>089-095>099-211800-
   SOUTHEAST IOWA

CITY           SKY/WX    TMP DP  RH WIND       PRES   REMARKS
BURLINGTON     SUNNY     58  43  57 NE13      30.18S
FAIRFIELD *    SUNNY     57  43  58 E13       30.18F
FORT MADISON * SUNNY     61  45  55 E8        30.19S
KEOKUK *       SUNNY     59  43  55 NE8G14    30.17F
OSKALOOSA *      N/A     59  43  55 E9        30.18S
CENTERVILLE *  SUNNY     59  45  58 E7        30.17S
OTTUMWA        SUNNY     59  44  57 E10       30.17S
WASHINGTON *   SUNNY     57  39  51 NE9       30.19S
$$

ABBREVIATIONS USED IN REMARKS
   TC - TEMPERATURES IN CELSIUS
  WCI - WIND CHILL INDEX
   HX - HEAT INDEX
  VSB - VISIBILITY
$$




USA.gov is the U.S. government's official web portal to all federal, state and local government web resources and services.